Regional Weather Roundup
Issued by NWS

Home | Current Version | Previous Version | Graphics & Text | Print | Product List | Glossary On
Versions: 1 2 3 4 5 6 7 8 9 10 11 12 13 14 15 16 17 18 19 20 21 22 23 24 25 26 27 28 29 30 31 32 33 34 35 36 37 38 39 40 41 42 43 44 45 46 47 48 49 50
000
ASUS43 KFSD 271902
RWRSD

WEATHER ROUNDUP FOR SOUTH DAKOTA
NATIONAL WEATHER SERVICE SIOUX FALLS SD
200 PM CDT WED APR 27 2016

NOTE: "FAIR" INDICATES FEW OR NO CLOUDS BELOW 12,000 FEET WITH NO
SIGNIFICANT WEATHER AND/OR OBSTRUCTIONS TO VISIBILITY.


SDZ001>005-009-010-012>017-272000-
NORTHWEST AND NORTH CENTRAL SOUTH DAKOTA

CITY           SKY/WX    TMP DP  RH WIND       PRES   REMARKS
BUFFALO          N/A     34  32  92 N12       29.82S WCI  25
FAITH            N/A     32  30  92 NE26      29.79F WCI  18
MOBRIDGE       LGT RAIN  44  36  73 NE21      29.77F
$$

SDZ012>016-024>037-041>051-057-063-072>074-272000-
SOUTHWEST AND SOUTH CENTRAL SOUTH DAKOTA

CITY           SKY/WX    TMP DP  RH WIND       PRES   REMARKS
RAPID CTY ARPT FLURRIES  37  34  89 N32G38    29.80S
PIERRE         LGT RAIN  37  35  92 NE21G29   29.70F FOG
CUSTER         LGT SNOW  35  28  75 NW13G18   29.76S WCI  26
PHILIP         LGT SNOW  35  34  96 N16       29.76F FOG     WCI  25
PINE RIDGE     LGT RAIN  37  33  85 N17G28    29.77F
WINNER         LGT RAIN  41  37  86 NE15      29.65R
$$

SDZ004>011-016>023-039-040-272000-
NORTHEAST SOUTH DAKOTA

CITY           SKY/WX    TMP DP  RH WIND       PRES   REMARKS
ABERDEEN       LGT RAIN  45  30  55 NE25G35   29.78F
WATERTOWN      LGT RAIN  40  34  79 E24G33    29.72R
BROOKINGS      LGT RAIN  38  35  89 E24G33    29.71R FOG
SISSETON         N/A     48  28  46 E18G28    29.82F
$$

SDZ017-020-022-023-036>040-048>070-272000-
SOUTHEAST SOUTH DAKOTA

CITY           SKY/WX    TMP DP  RH WIND       PRES   REMARKS
SIOUX FALLS    LGT RAIN  41  38  89 E20G30    29.66R
HURON          LGT RAIN  40  37  89 E23G32    29.70F
MITCHELL       LGT RAIN  41  39  93 E20G28    29.65F
YANKTON        CLOUDY    45  41  87 E17G25    29.57R
$$

ABBREVIATIONS USED IN REMARKS
   TC - TEMPERATURE IN CELSIUS
  WCI - WIND CHILL INDEX
   HX - HEAT INDEX
  VSB - VISIBILITY





USA.gov is the U.S. government's official web portal to all federal, state and local government web resources and services.